Time,TemperatureF,DewpointF,PressureIn,WindDirection,WindDirectionDegrees,WindSpeedMPH,WindSpeedGustMPH,Humidity,HourlyPrecipIn,Conditions,Clouds,dailyrainin,SoftwareType,DateUTC
2013-02-03 00:00:00,8.2,2.2,30.09,NW,326,0.0,6.0,76,0.00,,---,0.00,VWS V14.01,2013-02-03 06:00:00,
2013-02-03 00:01:00,7.8,2.4,30.11,NW,311,0.0,2.0,78,0.00,,---,0.00,VWS V14.01,2013-02-03 06:01:00,
2013-02-03 00:06:00,7.9,2.5,30.10,NW,306,0.0,1.0,78,0.00,,---,0.00,VWS V14.01,2013-02-03 06:06:00,
2013-02-03 00:11:00,8.0,2.6,30.10,North,355,0.0,2.0,78,0.00,,---,0.00,VWS V14.01,2013-02-03 06:11:00,
2013-02-03 00:16:00,8.1,2.4,30.10,West,263,0.0,2.0,77,0.00,,---,0.00,VWS V14.01,2013-02-03 06:16:00,
2013-02-03 00:21:00,8.1,2.4,30.10,North,355,2.0,4.0,77,0.00,,---,0.00,VWS V14.01,2013-02-03 06:21:00,
2013-02-03 00:26:00,8.1,2.4,30.10,WNW,296,0.0,4.0,77,0.00,,---,0.00,VWS V14.01,2013-02-03 06:26:00,
2013-02-03 00:30:00,7.9,1.9,30.10,North,350,0.0,5.0,76,0.00,,---,0.00,VWS V14.01,2013-02-03 06:30:00,
2013-02-03 00:31:00,8.2,2.5,30.09,WNW,296,0.0,6.0,77,0.00,,---,0.00,VWS V14.01,2013-02-03 06:31:00,
2013-02-03 00:36:00,8.2,2.2,30.09,NW,314,0.0,4.0,76,0.00,,---,0.00,VWS V14.01,2013-02-03 06:36:00,
2013-02-03 00:41:00,8.2,2.2,30.09,NNW,330,2.0,4.0,76,0.00,,---,0.00,VWS V14.01,2013-02-03 06:41:00,
2013-02-03 00:46:00,8.2,2.2,30.09,NNW,344,0.0,4.0,76,0.00,,---,0.00,VWS V14.01,2013-02-03 06:46:00,
2013-02-03 00:51:00,8.2,2.2,30.10,WNW,294,6.0,6.0,76,0.00,,---,0.00,VWS V14.01,2013-02-03 06:51:00,
2013-02-03 00:55:00,8.2,2.2,30.09,North,349,0.0,6.0,76,0.00,,---,0.00,VWS V14.01,2013-02-03 06:55:00,
2013-02-03 01:00:00,8.2,2.2,30.09,NW,326,0.0,6.0,76,0.00,,---,0.00,VWS V14.01,2013-02-03 07:00:00,
2013-02-03 01:06:00,8.1,2.1,30.09,NW,306,1.0,1.0,76,0.00,,---,0.00,VWS V14.01,2013-02-03 07:06:00,
2013-02-03 01:11:00,8.1,2.1,30.09,WNW,283,0.0,2.0,76,0.00,,---,0.00,VWS V14.01,2013-02-03 07:11:00,
2013-02-03 01:16:00,8.0,2.0,30.10,NW,317,0.0,3.0,76,0.00,,---,0.00,VWS V14.01,2013-02-03 07:16:00,
2013-02-03 01:20:00,8.0,2.0,30.10,WNW,303,0.0,5.0,76,0.00,,---,0.00,VWS V14.01,2013-02-03 07:20:00,
2013-02-03 01:25:00,7.9,1.9,30.10,NNE,15,0.0,5.0,76,0.00,,---,0.00,VWS V14.01,2013-02-03 07:25:00,
2013-02-03 01:30:00,7.9,1.9,30.10,North,350,0.0,5.0,76,0.00,,---,0.00,VWS V14.01,2013-02-03 07:30:00,
2013-02-03 01:35:00,7.8,1.5,30.10,SW,230,1.0,6.0,75,0.00,,---,0.00,VWS V14.01,2013-02-03 07:35:00,
2013-02-03 01:40:00,7.7,1.4,30.10,North,9,0.0,6.0,75,0.00,,---,0.00,VWS V14.01,2013-02-03 07:40:00,
2013-02-03 01:45:00,7.7,1.7,30.10,West,263,0.0,6.0,76,0.00,,---,0.00,VWS V14.01,2013-02-03 07:45:00,
2013-02-03 01:50:00,7.7,1.7,30.11,West,263,0.0,6.0,76,0.00,,---,0.00,VWS V14.01,2013-02-03 07:50:00,
2013-02-03 01:55:00,7.8,1.5,30.10,NW,325,0.0,7.0,75,0.00,,---,0.00,VWS V14.01,2013-02-03 07:55:00,
2013-02-03 02:00:00,7.7,1.4,30.09,West,273,1.0,7.0,75,0.00,,---,0.00,VWS V14.01,2013-02-03 08:00:00,
2013-02-03 02:05:00,7.6,1.4,30.10,North,355,0.0,2.0,75,0.00,,---,0.00,VWS V14.01,2013-02-03 08:05:00,
2013-02-03 02:10:00,7.6,1.1,30.09,West,275,9.0,9.0,74,0.00,,---,0.00,VWS V14.01,2013-02-03 08:10:00,
2013-02-03 02:15:00,7.4,0.9,30.09,NW,315,0.0,9.0,74,0.00,,---,0.00,VWS V14.01,2013-02-03 08:15:00,
2013-02-03 02:20:00,7.2,0.7,30.08,NNE,22,1.0,9.0,74,0.00,,---,0.00,VWS V14.01,2013-02-03 08:20:00,
2013-02-03 02:25:00,7.0,0.5,30.11,NW,323,1.0,9.0,74,0.00,,---,0.00,VWS V14.01,2013-02-03 08:25:00,
2013-02-03 02:30:00,6.7,0.2,30.11,WNW,290,0.0,9.0,74,0.00,,---,0.00,VWS V14.01,2013-02-03 08:30:00,
2013-02-03 02:35:00,6.4,-0.1,30.11,NW,306,0.0,2.0,74,0.00,,---,0.00,VWS V14.01,2013-02-03 08:35:00,
2013-02-03 02:40:00,6.0,-0.5,30.11,NNW,346,0.0,2.0,74,0.00,,---,0.00,VWS V14.01,2013-02-03 08:40:00,
2013-02-03 02:45:00,5.7,-0.8,30.11,NNW,336,0.0,3.0,74,0.00,,---,0.00,VWS V14.01,2013-02-03 08:45:00,
2013-02-03 02:50:00,5.4,-0.8,30.11,NW,304,0.0,7.0,75,0.00,,---,0.00,VWS V14.01,2013-02-03 08:50:00,
2013-02-03 02:55:00,5.1,-1.1,30.11,NW,307,0.0,7.0,75,0.00,,---,0.00,VWS V14.01,2013-02-03 08:55:00,
2013-02-03 03:00:00,4.9,-1.3,30.11,NW,326,0.0,7.0,75,0.00,,---,0.00,VWS V14.01,2013-02-03 09:00:00,
2013-02-03 03:05:00,4.7,-1.5,30.12,NW,321,0.0,3.0,75,0.00,,---,0.00,VWS V14.01,2013-02-03 09:05:00,
2013-02-03 03:10:00,4.6,-1.3,30.12,WNW,293,0.0,5.0,76,0.00,,---,0.00,VWS V14.01,2013-02-03 09:10:00,
2013-02-03 03:15:00,4.6,-1.3,30.11,WNW,293,0.0,5.0,76,0.00,,---,0.00,VWS V14.01,2013-02-03 09:15:00,
2013-02-03 03:20:00,4.4,-1.5,30.12,WNW,293,0.0,5.0,76,0.00,,---,0.00,VWS V14.01,2013-02-03 09:20:00,
2013-02-03 03:25:00,4.1,-1.8,30.11,NNW,346,0.0,5.0,76,0.00,,---,0.00,VWS V14.01,2013-02-03 09:25:00,
2013-02-03 03:30:00,3.8,-2.1,30.11,West,264,0.0,5.0,76,0.00,,---,0.00,VWS V14.01,2013-02-03 09:30:00,
2013-02-03 03:35:00,3.7,-2.2,30.11,SW,233,1.0,1.0,76,0.00,,---,0.00,VWS V14.01,2013-02-03 09:35:00,
2013-02-03 03:40:00,3.7,-1.9,30.12,WNW,291,0.0,2.0,77,0.00,,---,0.00,VWS V14.01,2013-02-03 09:40:00,
2013-02-03 03:45:00,3.7,-2.2,30.12,WNW,294,0.0,2.0,76,0.00,,---,0.00,VWS V14.01,2013-02-03 09:45:00,
2013-02-03 03:50:00,3.6,-2.3,30.12,NNW,331,0.0,5.0,76,0.00,,---,0.00,VWS V14.01,2013-02-03 09:50:00,
2013-02-03 03:55:00,3.5,-2.1,30.12,West,268,0.0,5.0,77,0.00,,---,0.00,VWS V14.01,2013-02-03 09:55:00,
2013-02-03 04:00:00,3.3,-2.5,30.13,WNW,290,0.0,5.0,76,0.00,,---,0.00,VWS V14.01,2013-02-03 10:00:00,
2013-02-03 04:05:00,3.2,-2.4,30.13,NW,322,0.0,0.0,77,0.00,,---,0.00,VWS V14.01,2013-02-03 10:05:00,
2013-02-03 04:10:00,3.1,-2.5,30.13,NW,322,0.0,4.0,77,0.00,,---,0.00,VWS V14.01,2013-02-03 10:10:00,
2013-02-03 04:15:00,2.8,-2.8,30.13,North,355,0.0,4.0,77,0.00,,---,0.00,VWS V14.01,2013-02-03 10:15:00,
2013-02-03 04:20:00,2.7,-2.9,30.14,West,271,0.0,4.0,77,0.00,,---,0.00,VWS V14.01,2013-02-03 10:20:00,
2013-02-03 04:25:00,2.8,-2.5,30.14,West,276,0.0,4.0,78,0.00,,---,0.00,VWS V14.01,2013-02-03 10:25:00,
2013-02-03 04:30:00,2.8,-2.5,30.14,West,271,0.0,6.0,78,0.00,,---,0.00,VWS V14.01,2013-02-03 10:30:00,
2013-02-03 04:35:00,2.8,-2.5,30.13,WSW,254,0.0,2.0,78,0.00,,---,0.00,VWS V14.01,2013-02-03 10:35:00,
2013-02-03 04:40:00,2.8,-2.8,30.14,NW,321,0.0,2.0,77,0.00,,---,0.00,VWS V14.01,2013-02-03 10:40:00,
2013-02-03 04:45:00,2.6,-3.0,30.14,NW,321,0.0,2.0,77,0.00,,---,0.00,VWS V14.01,2013-02-03 10:45:00,
2013-02-03 04:50:00,2.4,-2.9,30.14,West,273,0.0,4.0,78,0.00,,---,0.00,VWS V14.01,2013-02-03 10:50:00,
2013-02-03 04:55:00,2.4,-2.9,30.13,West,269,0.0,4.0,78,0.00,,---,0.00,VWS V14.01,2013-02-03 10:55:00,
2013-02-03 05:00:00,2.2,-3.3,30.13,West,269,0.0,4.0,77,0.00,,---,0.00,VWS V14.01,2013-02-03 11:00:00,
2013-02-03 05:05:00,2.0,-3.5,30.13,NW,324,0.0,1.0,77,0.00,,---,0.00,VWS V14.01,2013-02-03 11:05:00,
2013-02-03 05:10:00,1.8,-3.5,30.13,NNW,338,0.0,2.0,78,0.00,,---,0.00,VWS V14.01,2013-02-03 11:10:00,
2013-02-03 05:15:00,1.5,-4.0,30.13,NNW,338,0.0,2.0,77,0.00,,---,0.00,VWS V14.01,2013-02-03 11:15:00,
2013-02-03 05:20:00,1.3,-4.2,30.13,NNW,338,0.0,2.0,77,0.00,,---,0.00,VWS V14.01,2013-02-03 11:20:00,
2013-02-03 05:25:00,1.0,-4.2,30.14,NNW,338,0.0,2.0,78,0.00,,---,0.00,VWS V14.01,2013-02-03 11:25:00,
2013-02-03 05:30:00,0.9,-4.3,30.14,West,261,0.0,2.0,78,0.00,,---,0.00,VWS V14.01,2013-02-03 11:30:00,
2013-02-03 05:35:00,0.9,-4.3,30.14,West,281,0.0,2.0,78,0.00,,---,0.00,VWS V14.01,2013-02-03 11:35:00,
2013-02-03 05:40:00,0.9,-4.3,30.13,West,271,0.0,2.0,78,0.00,,---,0.00,VWS V14.01,2013-02-03 11:40:00,
2013-02-03 05:45:00,0.7,-4.8,30.14,West,271,0.0,2.0,77,0.00,,---,0.00,VWS V14.01,2013-02-03 11:45:00,
2013-02-03 05:50:00,0.3,-5.2,30.14,West,271,0.0,2.0,77,0.00,,---,0.00,VWS V14.01,2013-02-03 11:50:00,
2013-02-03 05:55:00,-0.1,-5.6,30.14,West,271,0.0,2.0,77,0.00,,---,0.00,VWS V14.01,2013-02-03 11:55:00,
2013-02-03 06:00:00,-0.6,-6.1,30.14,West,271,0.0,2.0,77,0.00,,---,0.00,VWS V14.01,2013-02-03 12:00:00,
2013-02-03 06:05:00,-0.8,-6.0,30.13,West,271,0.0,0.0,78,0.00,,---,0.00,VWS V14.01,2013-02-03 12:05:00,
2013-02-03 06:10:00,-1.0,-6.2,30.14,West,271,0.0,0.0,78,0.00,,---,0.00,VWS V14.01,2013-02-03 12:10:00,
2013-02-03 06:15:00,-1.2,-6.4,30.14,West,271,0.0,0.0,78,0.00,,---,0.00,VWS V14.01,2013-02-03 12:15:00,
2013-02-03 06:20:00,-1.5,-6.7,30.14,West,271,0.0,0.0,78,0.00,,---,0.00,VWS V14.01,2013-02-03 12:20:00,
2013-02-03 06:25:00,-1.9,-7.1,30.14,West,277,0.0,0.0,78,0.00,,---,0.00,VWS V14.01,2013-02-03 12:25:00,
2013-02-03 06:30:00,-2.1,-7.3,30.14,West,276,0.0,0.0,78,0.00,,---,0.00,VWS V14.01,2013-02-03 12:30:00,
2013-02-03 06:35:00,-2.3,-7.2,30.15,West,276,0.0,0.0,79,0.00,,---,0.00,VWS V14.01,2013-02-03 12:35:00,
2013-02-03 06:40:00,-2.4,-7.3,30.15,West,277,0.0,0.0,79,0.00,,---,0.00,VWS V14.01,2013-02-03 12:40:00,
2013-02-03 06:45:00,-2.4,-7.3,30.14,WNW,292,0.0,1.0,79,0.00,,---,0.00,VWS V14.01,2013-02-03 12:45:00,
2013-02-03 06:50:00,-2.4,-7.3,30.14,WNW,292,0.0,1.0,79,0.00,,---,0.00,VWS V14.01,2013-02-03 12:50:00,
2013-02-03 06:55:00,-2.5,-7.4,30.14,WNW,292,0.0,1.0,79,0.00,,---,0.00,VWS V14.01,2013-02-03 12:55:00,
2013-02-03 07:00:00,-2.5,-7.4,30.14,WNW,292,0.0,1.0,79,0.00,,---,0.00,VWS V14.01,2013-02-03 13:00:00,
2013-02-03 07:05:00,-2.5,-7.7,30.13,WNW,292,0.0,0.0,78,0.00,,---,0.00,VWS V14.01,2013-02-03 13:05:00,
2013-02-03 07:10:00,-2.5,-7.7,30.14,WNW,292,0.0,0.0,78,0.00,,---,0.00,VWS V14.01,2013-02-03 13:10:00,
2013-02-03 07:15:00,-2.2,-6.8,30.14,WNW,292,0.0,0.0,80,0.00,,---,0.00,VWS V14.01,2013-02-03 13:15:00,
2013-02-03 07:20:00,-1.3,-5.7,30.15,WNW,287,0.0,3.0,81,0.00,,---,0.00,VWS V14.01,2013-02-03 13:20:00,
2013-02-03 07:25:00,-0.6,-5.0,30.14,WNW,287,0.0,3.0,81,0.00,,---,0.00,VWS V14.01,2013-02-03 13:25:00,
2013-02-03 07:30:00,-0.1,-4.8,30.14,WNW,287,0.0,3.0,80,0.00,,---,0.00,VWS V14.01,2013-02-03 13:30:00,
2013-02-03 07:35:00,0.2,-4.5,30.15,WNW,287,0.0,0.0,80,0.00,,---,0.00,VWS V14.01,2013-02-03 13:35:00,
2013-02-03 07:40:00,0.4,-4.3,30.15,WNW,287,0.0,0.0,80,0.00,,---,0.00,VWS V14.01,2013-02-03 13:40:00,
2013-02-03 07:45:00,0.6,-4.1,30.15,WNW,286,0.0,1.0,80,0.00,,---,0.00,VWS V14.01,2013-02-03 13:45:00,
2013-02-03 07:50:00,0.6,-4.4,30.15,WNW,286,0.0,1.0,79,0.00,,---,0.00,VWS V14.01,2013-02-03 13:50:00,
2013-02-03 07:55:00,0.5,-2.0,30.15,WNW,286,0.0,1.0,89,0.00,,---,0.00,VWS V14.01,2013-02-03 13:55:00,
2013-02-03 08:00:00,0.2,-5.0,30.16,WNW,286,0.0,1.0,78,0.00,,---,0.00,VWS V14.01,2013-02-03 14:00:00,
2013-02-03 08:05:00,0.1,-4.9,30.15,WNW,286,0.0,0.0,79,0.00,,---,0.00,VWS V14.01,2013-02-03 14:05:00,
2013-02-03 08:10:00,-0.1,-4.9,30.15,WNW,286,0.0,0.0,79,0.00,,---,0.00,VWS V14.01,2013-02-03 14:10:00,
2013-02-03 08:15:00,-0.1,-4.9,30.16,WNW,286,0.0,0.0,79,0.00,,---,0.00,VWS V14.01,2013-02-03 14:15:00,
2013-02-03 08:20:00,0.2,-4.8,30.16,WNW,286,0.0,0.0,79,0.00,,---,0.00,VWS V14.01,2013-02-03 14:20:00,
2013-02-03 08:25:00,0.6,-4.1,30.16,WNW,286,0.0,0.0,80,0.00,,---,0.00,VWS V14.01,2013-02-03 14:25:00,
2013-02-03 08:30:00,1.0,-3.7,30.15,WNW,286,0.0,0.0,80,0.00,,---,0.00,VWS V14.01,2013-02-03 14:30:00,
2013-02-03 08:35:00,1.5,-3.2,30.16,WNW,286,0.0,0.0,80,0.00,,---,0.00,VWS V14.01,2013-02-03 14:35:00,
2013-02-03 08:40:00,2.0,-2.7,30.15,WNW,286,0.0,0.0,80,0.00,,---,0.00,VWS V14.01,2013-02-03 14:40:00,
2013-02-03 08:45:00,2.5,-2.5,30.16,WNW,286,0.0,1.0,79,0.00,,---,0.00,VWS V14.01,2013-02-03 14:45:00,
2013-02-03 08:50:00,2.9,-2.1,30.15,WNW,285,0.0,1.0,79,0.00,,---,0.00,VWS V14.01,2013-02-03 14:50:00,
2013-02-03 08:55:00,3.3,-2.0,30.15,WNW,285,0.0,1.0,78,0.00,,---,0.00,VWS V14.01,2013-02-03 14:55:00,
2013-02-03 09:00:00,3.7,-1.6,30.14,WNW,285,0.0,1.0,78,0.00,,---,0.00,VWS V14.01,2013-02-03 15:00:00,
2013-02-03 09:05:00,4.2,-1.4,30.15,WSW,258,1.0,2.0,77,0.00,,---,0.00,VWS V14.01,2013-02-03 15:05:00,
2013-02-03 09:10:00,4.6,-1.3,30.14,West,273,0.0,2.0,76,0.00,,---,0.00,VWS V14.01,2013-02-03 15:10:00,
2013-02-03 09:15:00,5.0,-0.9,30.14,West,274,0.0,2.0,76,0.00,,---,0.00,VWS V14.01,2013-02-03 15:15:00,
2013-02-03 09:20:00,5.5,-0.7,30.14,West,274,0.0,2.0,75,0.00,,---,0.00,VWS V14.01,2013-02-03 15:20:00,
2013-02-03 09:25:00,6.0,-0.2,30.14,West,274,0.0,2.0,75,0.00,,---,0.00,VWS V14.01,2013-02-03 15:25:00,
2013-02-03 09:30:00,6.2,-0.6,30.14,West,273,1.0,3.0,73,0.00,,---,0.00,VWS V14.01,2013-02-03 15:30:00,
2013-02-03 09:35:00,6.4,-0.4,30.14,West,275,0.0,3.0,73,0.00,,---,0.00,VWS V14.01,2013-02-03 15:35:00,
2013-02-03 09:40:00,6.7,-0.4,30.14,WSW,250,0.0,3.0,72,0.00,,---,0.00,VWS V14.01,2013-02-03 15:40:00,
2013-02-03 09:45:00,6.9,-0.2,30.14,West,263,0.0,3.0,72,0.00,,---,0.00,VWS V14.01,2013-02-03 15:45:00,
2013-02-03 09:50:00,7.2,-0.2,30.14,West,263,0.0,3.0,71,0.00,,---,0.00,VWS V14.01,2013-02-03 15:50:00,
2013-02-03 09:55:00,7.5,0.1,30.14,North,349,0.0,3.0,71,0.00,,---,0.00,VWS V14.01,2013-02-03 15:55:00,
2013-02-03 10:00:00,8.0,0.3,30.14,NNE,13,3.0,4.0,70,0.00,,---,0.00,VWS V14.01,2013-02-03 16:00:00,
2013-02-03 10:05:00,8.2,0.2,30.14,North,351,0.0,4.0,69,0.00,,---,0.00,VWS V14.01,2013-02-03 16:05:00,
2013-02-03 10:10:00,8.6,0.2,30.14,North,351,0.0,4.0,68,0.00,,---,0.00,VWS V14.01,2013-02-03 16:10:00,
2013-02-03 10:15:00,8.9,0.5,30.14,North,5,2.0,4.0,68,0.00,,---,0.00,VWS V14.01,2013-02-03 16:15:00,
2013-02-03 10:20:00,9.3,0.6,30.13,NW,306,0.0,4.0,67,0.00,,---,0.00,VWS V14.01,2013-02-03 16:20:00,
2013-02-03 10:25:00,9.6,0.5,30.14,WNW,294,0.0,4.0,66,0.00,,---,0.00,VWS V14.01,2013-02-03 16:25:00,
2013-02-03 10:30:00,9.8,0.7,30.14,North,355,0.0,4.0,66,0.00,,---,0.00,VWS V14.01,2013-02-03 16:30:00,
2013-02-03 10:35:00,9.9,0.5,30.14,North,350,0.0,3.0,65,0.00,,---,0.00,VWS V14.01,2013-02-03 16:35:00,
2013-02-03 10:40:00,10.1,0.7,30.14,WNW,287,2.0,6.0,65,0.00,,---,0.00,VWS V14.01,2013-02-03 16:40:00,
2013-02-03 10:45:00,10.3,0.9,30.14,NNW,339,0.0,6.0,65,0.00,,---,0.00,VWS V14.01,2013-02-03 16:45:00,
2013-02-03 10:50:00,10.5,0.8,30.14,North,355,0.0,6.0,64,0.00,,---,0.00,VWS V14.01,2013-02-03 16:50:00,
2013-02-03 10:55:00,10.3,0.6,30.14,North,360,2.0,6.0,64,0.00,,---,0.00,VWS V14.01,2013-02-03 16:55:00,
2013-02-03 11:00:00,10.4,0.6,30.14,North,5,0.0,6.0,64,0.00,,---,0.00,VWS V14.01,2013-02-03 17:00:00,
2013-02-03 11:05:00,10.9,1.1,30.14,NNW,342,0.0,3.0,64,0.00,,---,0.00,VWS V14.01,2013-02-03 17:05:00,
2013-02-03 11:10:00,11.1,1.0,30.14,NNE,22,0.0,5.0,63,0.00,,---,0.00,VWS V14.01,2013-02-03 17:10:00,
2013-02-03 11:15:00,11.5,1.7,30.14,North,5,2.0,5.0,64,0.00,,---,0.00,VWS V14.01,2013-02-03 17:15:00,
2013-02-03 11:20:00,11.6,1.5,30.13,NNE,17,0.0,5.0,63,0.00,,---,0.00,VWS V14.01,2013-02-03 17:20:00,
2013-02-03 11:25:00,11.9,1.7,30.14,North,355,3.0,5.0,63,0.00,,---,0.00,VWS V14.01,2013-02-03 17:25:00,
2013-02-03 11:30:00,12.2,1.7,30.13,NNW,336,0.0,5.0,62,0.00,,---,0.00,VWS V14.01,2013-02-03 17:30:00,
2013-02-03 11:35:00,12.6,2.1,30.13,WNW,291,1.0,2.0,62,0.00,,---,0.00,VWS V14.01,2013-02-03 17:35:00,
2013-02-03 11:40:00,12.7,1.8,30.13,North,360,0.0,3.0,61,0.00,,---,0.00,VWS V14.01,2013-02-03 17:40:00,
2013-02-03 11:45:00,12.4,1.2,30.12,NNW,340,0.0,3.0,60,0.00,,---,0.00,VWS V14.01,2013-02-03 17:45:00,
2013-02-03 11:50:00,12.3,1.1,30.12,NNE,15,0.0,4.0,60,0.00,,---,0.00,VWS V14.01,2013-02-03 17:50:00,
2013-02-03 11:55:00,12.2,1.7,30.11,North,360,2.0,4.0,62,0.00,,---,0.00,VWS V14.01,2013-02-03 17:55:00,
2013-02-03 12:00:00,12.2,1.3,30.11,NNW,346,0.0,4.0,61,0.00,,---,0.00,VWS V14.01,2013-02-03 18:00:00,
2013-02-03 12:05:00,12.6,1.4,30.11,WSW,240,0.0,2.0,60,0.00,,---,0.00,VWS V14.01,2013-02-03 18:05:00,
2013-02-03 12:10:00,12.8,1.5,30.11,West,265,0.0,2.0,60,0.00,,---,0.00,VWS V14.01,2013-02-03 18:10:00,
2013-02-03 12:15:00,12.7,1.5,30.11,WNW,285,1.0,2.0,60,0.00,,---,0.00,VWS V14.01,2013-02-03 18:15:00,
2013-02-03 12:20:00,12.4,1.2,30.11,WNW,291,0.0,4.0,60,0.00,,---,0.00,VWS V14.01,2013-02-03 18:20:00,
2013-02-03 12:25:00,12.3,0.7,30.10,WSW,238,1.0,4.0,59,0.00,,---,0.00,VWS V14.01,2013-02-03 18:25:00,
2013-02-03 12:30:00,12.0,0.8,30.10,WSW,242,0.0,4.0,60,0.00,,---,0.00,VWS V14.01,2013-02-03 18:30:00,
2013-02-03 12:35:00,12.0,1.1,30.10,West,261,1.0,4.0,61,0.00,,---,0.00,VWS V14.01,2013-02-03 18:35:00,
2013-02-03 12:40:00,11.8,1.0,30.10,WSW,257,0.0,4.0,61,0.00,,---,0.00,VWS V14.01,2013-02-03 18:40:00,
2013-02-03 12:45:00,11.6,0.4,30.10,West,263,0.0,4.0,60,0.00,,---,0.00,VWS V14.01,2013-02-03 18:45:00,
2013-02-03 12:50:00,11.6,1.1,30.10,West,260,0.0,4.0,62,0.00,,---,0.00,VWS V14.01,2013-02-03 18:50:00,
2013-02-03 12:55:00,11.9,1.0,30.10,West,276,0.0,4.0,61,0.00,,---,0.00,VWS V14.01,2013-02-03 18:55:00,
2013-02-03 13:00:00,12.1,0.9,30.10,SW,234,1.0,4.0,60,0.00,,---,0.00,VWS V14.01,2013-02-03 19:00:00,
2013-02-03 13:05:00,12.1,0.9,30.10,SW,234,0.0,1.0,60,0.00,,---,0.00,VWS V14.01,2013-02-03 19:05:00,
2013-02-03 13:10:00,11.9,0.3,30.10,WSW,258,2.0,3.0,59,0.00,,---,0.00,VWS V14.01,2013-02-03 19:10:00,
2013-02-03 13:15:00,11.8,0.6,30.09,West,262,0.0,3.0,60,0.00,,---,0.00,VWS V14.01,2013-02-03 19:15:00,
2013-02-03 13:20:00,11.7,0.2,30.10,West,271,0.0,3.0,59,0.00,,---,0.00,VWS V14.01,2013-02-03 19:20:00,
2013-02-03 13:25:00,12.0,0.8,30.09,West,275,0.0,3.0,60,0.00,,---,0.00,VWS V14.01,2013-02-03 19:25:00,
2013-02-03 13:30:00,12.4,0.8,30.09,NW,311,0.0,4.0,59,0.00,,---,0.00,VWS V14.01,2013-02-03 19:30:00,
2013-02-03 13:35:00,12.8,0.8,30.08,West,263,2.0,2.0,58,0.00,,---,0.00,VWS V14.01,2013-02-03 19:35:00,
2013-02-03 13:40:00,12.5,0.5,30.08,West,261,0.0,3.0,58,0.00,,---,0.00,VWS V14.01,2013-02-03 19:40:00,
2013-02-03 13:45:00,12.3,0.7,30.08,West,279,1.0,3.0,59,0.00,,---,0.00,VWS V14.01,2013-02-03 19:45:00,
2013-02-03 13:50:00,12.1,0.9,30.08,WNW,287,0.0,4.0,60,0.00,,---,0.00,VWS V14.01,2013-02-03 19:50:00,
2013-02-03 13:55:00,12.1,0.5,30.08,West,281,1.0,4.0,59,0.00,,---,0.00,VWS V14.01,2013-02-03 19:55:00,
2013-02-03 14:00:00,12.2,0.6,30.07,NNW,336,0.0,4.0,59,0.00,,---,0.00,VWS V14.01,2013-02-03 20:00:00,
2013-02-03 14:05:00,12.5,0.9,30.07,NW,312,0.0,4.0,59,0.00,,---,0.00,VWS V14.01,2013-02-03 20:05:00,
2013-02-03 14:10:00,12.5,0.9,30.07,West,277,0.0,4.0,59,0.00,,---,0.00,VWS V14.01,2013-02-03 20:10:00,
2013-02-03 14:15:00,12.7,1.1,30.07,West,280,0.0,4.0,59,0.00,,---,0.00,VWS V14.01,2013-02-03 20:15:00,
2013-02-03 14:20:00,12.8,0.8,30.07,WSW,254,0.0,4.0,58,0.00,,---,0.00,VWS V14.01,2013-02-03 20:20:00,
2013-02-03 14:25:00,12.8,0.8,30.07,WSW,254,0.0,4.0,58,0.00,,---,0.00,VWS V14.01,2013-02-03 20:25:00,
2013-02-03 14:30:00,12.6,0.6,30.07,West,280,1.0,5.0,58,0.00,,---,0.00,VWS V14.01,2013-02-03 20:30:00,
2013-02-03 14:35:00,12.5,0.5,30.07,WSW,249,0.0,3.0,58,0.00,,---,0.00,VWS V14.01,2013-02-03 20:35:00,
2013-02-03 14:40:00,12.4,0.8,30.07,WNW,295,0.0,3.0,59,0.00,,---,0.00,VWS V14.01,2013-02-03 20:40:00,
2013-02-03 14:45:00,12.4,1.2,30.07,WNW,296,0.0,3.0,60,0.00,,---,0.00,VWS V14.01,2013-02-03 20:45:00,
2013-02-03 14:50:00,12.6,1.0,30.07,WNW,303,0.0,3.0,59,0.00,,---,0.00,VWS V14.01,2013-02-03 20:50:00,
2013-02-03 14:55:00,12.7,1.1,30.07,WNW,303,0.0,3.0,59,0.00,,---,0.00,VWS V14.01,2013-02-03 20:55:00,
2013-02-03 15:00:00,12.9,1.3,30.06,WNW,303,0.0,3.0,59,0.00,,---,0.00,VWS V14.01,2013-02-03 21:00:00,
2013-02-03 15:05:00,13.2,1.2,30.07,WSW,248,0.0,1.0,58,0.00,,---,0.00,VWS V14.01,2013-02-03 21:05:00,
2013-02-03 15:10:00,13.1,1.5,30.06,West,269,0.0,1.0,59,0.00,,---,0.00,VWS V14.01,2013-02-03 21:10:00,
2013-02-03 15:15:00,12.8,1.2,30.07,West,269,1.0,1.0,59,0.00,,---,0.00,VWS V14.01,2013-02-03 21:15:00,
2013-02-03 15:20:00,12.6,1.0,30.06,West,261,0.0,2.0,59,0.00,,---,0.00,VWS V14.01,2013-02-03 21:20:00,
2013-02-03 15:25:00,12.7,0.7,30.06,West,262,0.0,2.0,58,0.00,,---,0.00,VWS V14.01,2013-02-03 21:25:00,
2013-02-03 15:30:00,12.7,0.7,30.06,West,261,0.0,2.0,58,0.00,,---,0.00,VWS V14.01,2013-02-03 21:30:00,
2013-02-03 15:35:00,12.6,1.4,30.06,West,261,0.0,1.0,60,0.00,,---,0.00,VWS V14.01,2013-02-03 21:35:00,
2013-02-03 15:40:00,12.6,1.7,30.06,SW,229,0.0,1.0,61,0.00,,---,0.00,VWS V14.01,2013-02-03 21:40:00,
2013-02-03 15:45:00,12.5,1.3,30.06,SW,229,0.0,1.0,60,0.00,,---,0.00,VWS V14.01,2013-02-03 21:45:00,
2013-02-03 15:50:00,12.5,0.9,30.06,SW,229,0.0,1.0,59,0.00,,---,0.00,VWS V14.01,2013-02-03 21:50:00,
2013-02-03 15:55:00,12.5,0.9,30.06,SW,229,0.0,1.0,59,0.00,,---,0.00,VWS V14.01,2013-02-03 21:55:00,
2013-02-03 16:00:00,12.5,0.5,30.06,SW,229,0.0,1.0,58,0.00,,---,0.00,VWS V14.01,2013-02-03 22:00:00,
2013-02-03 16:05:00,12.5,0.9,30.05,SW,229,0.0,0.0,59,0.00,,---,0.00,VWS V14.01,2013-02-03 22:05:00,
2013-02-03 16:10:00,12.6,1.0,30.05,SW,229,0.0,0.0,59,0.00,,---,0.00,VWS V14.01,2013-02-03 22:10:00,
2013-02-03 16:15:00,12.5,0.9,30.05,SW,229,0.0,0.0,59,0.00,,---,0.00,VWS V14.01,2013-02-03 22:15:00,
2013-02-03 16:20:00,12.4,0.8,30.05,SW,229,0.0,0.0,59,0.00,,---,0.00,VWS V14.01,2013-02-03 22:20:00,
2013-02-03 16:25:00,12.3,1.1,30.05,SW,229,0.0,0.0,60,0.00,,---,0.00,VWS V14.01,2013-02-03 22:25:00,
2013-02-03 16:30:00,12.1,1.2,30.05,SW,229,0.0,0.0,61,0.00,,---,0.00,VWS V14.01,2013-02-03 22:30:00,
2013-02-03 16:35:00,12.0,1.1,30.05,SW,229,0.0,0.0,61,0.00,,---,0.00,VWS V14.01,2013-02-03 22:35:00,
2013-02-03 16:40:00,11.9,1.0,30.05,SW,229,0.0,0.0,61,0.00,,---,0.00,VWS V14.01,2013-02-03 22:40:00,
2013-02-03 16:45:00,11.7,1.5,30.05,SW,229,0.0,0.0,63,0.00,,---,0.00,VWS V14.01,2013-02-03 22:45:00,
2013-02-03 16:50:00,11.6,1.8,30.05,SW,229,0.0,0.0,64,0.00,,---,0.00,VWS V14.01,2013-02-03 22:50:00,
2013-02-03 16:55:00,11.4,1.6,30.05,SW,229,0.0,0.0,64,0.00,,---,0.00,VWS V14.01,2013-02-03 22:55:00,
2013-02-03 17:00:00,11.2,1.7,30.05,SW,229,0.0,0.0,65,0.00,,---,0.00,VWS V14.01,2013-02-03 23:00:00,
2013-02-03 17:05:00,11.0,1.5,30.05,SW,229,0.0,1.0,65,0.00,,---,0.00,VWS V14.01,2013-02-03 23:05:00,
2013-02-03 17:10:00,10.9,1.5,30.05,SW,229,0.0,1.0,65,0.00,,---,0.00,VWS V14.01,2013-02-03 23:10:00,
2013-02-03 17:15:00,10.8,1.7,30.05,SW,229,0.0,1.0,66,0.00,,---,0.00,VWS V14.01,2013-02-03 23:15:00,
2013-02-03 17:20:00,10.7,1.9,30.05,SW,229,0.0,1.0,67,0.00,,---,0.00,VWS V14.01,2013-02-03 23:20:00,
2013-02-03 17:25:00,10.6,1.8,30.06,SW,229,0.0,1.0,67,0.00,,---,0.00,VWS V14.01,2013-02-03 23:25:00,
2013-02-03 17:30:00,10.6,1.8,30.05,SW,229,0.0,1.0,67,0.00,,---,0.00,VWS V14.01,2013-02-03 23:30:00,
2013-02-03 17:35:00,10.6,1.5,30.05,SW,229,0.0,0.0,66,0.00,,---,0.00,VWS V14.01,2013-02-03 23:35:00,
2013-02-03 17:40:00,10.6,1.5,30.06,SW,229,0.0,0.0,66,0.00,,---,0.00,VWS V14.01,2013-02-03 23:40:00,
2013-02-03 17:45:00,10.7,1.6,30.06,SW,229,0.0,1.0,66,0.00,,---,0.00,VWS V14.01,2013-02-03 23:45:00,
2013-02-03 17:50:00,10.6,1.5,30.05,SW,229,0.0,1.0,66,0.00,,---,0.00,VWS V14.01,2013-02-03 23:50:00,
2013-02-03 17:55:00,10.6,1.8,30.05,SW,229,0.0,1.0,67,0.00,,---,0.00,VWS V14.01,2013-02-03 23:55:00,
2013-02-03 18:00:00,10.6,1.8,30.05,SW,229,0.0,1.0,67,0.00,,---,0.00,VWS V14.01,2013-02-04 00:00:00,
2013-02-03 18:05:00,10.6,1.8,30.05,SW,229,0.0,0.0,67,0.00,,---,0.00,VWS V14.01,2013-02-04 00:05:00,
2013-02-03 18:10:00,10.5,1.7,30.06,SW,229,0.0,0.0,67,0.00,,---,0.00,VWS V14.01,2013-02-04 00:10:00,
2013-02-03 18:15:00,10.5,2.0,30.06,SW,229,0.0,0.0,68,0.00,,---,0.00,VWS V14.01,2013-02-04 00:15:00,
2013-02-03 18:20:00,10.4,1.6,30.06,SW,229,0.0,0.0,67,0.00,,---,0.00,VWS V14.01,2013-02-04 00:20:00,
2013-02-03 18:25:00,10.3,1.5,30.06,SW,229,0.0,0.0,67,0.00,,---,0.00,VWS V14.01,2013-02-04 00:25:00,
2013-02-03 18:30:00,10.1,1.3,30.06,SW,229,0.0,0.0,67,0.00,,---,0.00,VWS V14.01,2013-02-04 00:30:00,
2013-02-03 18:35:00,9.9,1.5,30.06,SW,229,0.0,0.0,68,0.00,,---,0.00,VWS V14.01,2013-02-04 00:35:00,
2013-02-03 18:40:00,9.9,1.8,30.06,SW,229,0.0,0.0,69,0.00,,---,0.00,VWS V14.01,2013-02-04 00:40:00,
2013-02-03 18:45:00,9.8,1.7,30.07,SW,229,0.0,0.0,69,0.00,,---,0.00,VWS V14.01,2013-02-04 00:45:00,
2013-02-03 18:50:00,9.8,2.0,30.07,SW,229,0.0,0.0,70,0.00,,---,0.00,VWS V14.01,2013-02-04 00:50:00,
2013-02-03 18:55:00,9.8,2.0,30.07,SW,229,0.0,0.0,70,0.00,,---,0.00,VWS V14.01,2013-02-04 00:55:00,
2013-02-03 19:00:00,9.7,1.9,30.06,SW,229,0.0,0.0,70,0.00,,---,0.00,VWS V14.01,2013-02-04 01:00:00,
2013-02-03 19:05:00,9.6,2.1,30.07,SW,229,0.0,0.0,71,0.00,,---,0.00,VWS V14.01,2013-02-04 01:05:00,
2013-02-03 19:10:00,9.5,1.7,30.06,SW,229,0.0,0.0,70,0.00,,---,0.00,VWS V14.01,2013-02-04 01:10:00,
2013-02-03 19:15:00,9.5,2.0,30.06,SW,229,0.0,0.0,71,0.00,,---,0.00,VWS V14.01,2013-02-04 01:15:00,
2013-02-03 19:20:00,9.6,2.1,30.07,SW,229,0.0,0.0,71,0.00,,---,0.00,VWS V14.01,2013-02-04 01:20:00,
2013-02-03 19:25:00,9.6,2.1,30.07,SW,229,0.0,0.0,71,0.00,,---,0.00,VWS V14.01,2013-02-04 01:25:00,
2013-02-03 19:30:00,9.7,2.2,30.06,SW,229,0.0,0.0,71,0.00,,---,0.00,VWS V14.01,2013-02-04 01:30:00,
2013-02-03 19:35:00,9.8,2.3,30.06,SW,229,0.0,0.0,71,0.00,,---,0.00,VWS V14.01,2013-02-04 01:35:00,
2013-02-03 19:40:00,9.8,2.3,30.07,SW,229,0.0,0.0,71,0.00,,---,0.00,VWS V14.01,2013-02-04 01:40:00,
2013-02-03 19:45:00,9.9,2.1,30.06,SW,229,0.0,0.0,70,0.00,,---,0.00,VWS V14.01,2013-02-04 01:45:00,
2013-02-03 19:50:00,9.9,1.8,30.06,SW,229,0.0,0.0,69,0.00,,---,0.00,VWS V14.01,2013-02-04 01:50:00,
2013-02-03 19:55:00,9.9,1.5,30.07,SW,229,0.0,0.0,68,0.00,,---,0.00,VWS V14.01,2013-02-04 01:55:00,
2013-02-03 20:00:00,9.9,1.5,30.06,SW,229,0.0,0.0,68,0.00,,---,0.00,VWS V14.01,2013-02-04 02:00:00,
2013-02-03 20:05:00,10.0,1.6,30.06,SW,229,0.0,0.0,68,0.00,,---,0.00,VWS V14.01,2013-02-04 02:05:00,
2013-02-03 20:10:00,10.0,1.6,30.06,SW,229,0.0,0.0,68,0.00,,---,0.00,VWS V14.01,2013-02-04 02:10:00,
2013-02-03 20:15:00,10.0,1.6,30.06,SW,229,0.0,0.0,68,0.00,,---,0.00,VWS V14.01,2013-02-04 02:15:00,
2013-02-03 20:20:00,10.0,1.2,30.06,SW,229,0.0,0.0,67,0.00,,---,0.00,VWS V14.01,2013-02-04 02:20:00,
2013-02-03 20:25:00,10.0,1.2,30.06,SW,229,0.0,0.0,67,0.00,,---,0.00,VWS V14.01,2013-02-04 02:25:00,
2013-02-03 20:30:00,10.0,1.2,30.06,SW,229,0.0,0.0,67,0.00,,---,0.00,VWS V14.01,2013-02-04 02:30:00,
2013-02-03 20:35:00,10.0,1.6,30.06,SW,229,0.0,0.0,68,0.00,,---,0.00,VWS V14.01,2013-02-04 02:35:00,
2013-02-03 20:40:00,10.0,1.6,30.06,SW,229,0.0,0.0,68,0.00,,---,0.00,VWS V14.01,2013-02-04 02:40:00,
2013-02-03 20:45:00,9.9,1.5,30.06,SW,229,0.0,0.0,68,0.00,,---,0.00,VWS V14.01,2013-02-04 02:45:00,
2013-02-03 20:50:00,9.9,1.5,30.06,SW,229,0.0,0.0,68,0.00,,---,0.00,VWS V14.01,2013-02-04 02:50:00,
2013-02-03 20:55:00,9.9,1.5,30.06,SW,229,0.0,0.0,68,0.00,,---,0.00,VWS V14.01,2013-02-04 02:55:00,
2013-02-03 21:00:00,9.9,1.5,30.06,SW,229,0.0,0.0,68,0.00,,---,0.00,VWS V14.01,2013-02-04 03:00:00,
2013-02-03 21:05:00,9.7,1.6,30.05,SW,229,0.0,0.0,69,0.00,,---,0.00,VWS V14.01,2013-02-04 03:05:00,
2013-02-03 21:10:00,9.6,1.5,30.05,SW,229,0.0,0.0,69,0.00,,---,0.00,VWS V14.01,2013-02-04 03:10:00,
2013-02-03 21:15:00,9.5,1.7,30.05,SW,229,0.0,0.0,70,0.00,,---,0.00,VWS V14.01,2013-02-04 03:15:00,
2013-02-03 21:20:00,9.4,1.6,30.06,SW,229,0.0,0.0,70,0.00,,---,0.00,VWS V14.01,2013-02-04 03:20:00,
2013-02-03 21:25:00,9.4,1.6,30.06,SW,229,0.0,0.0,70,0.00,,---,0.00,VWS V14.01,2013-02-04 03:25:00,
2013-02-03 21:30:00,9.2,1.7,30.06,SW,229,0.0,0.0,71,0.00,,---,0.00,VWS V14.01,2013-02-04 03:30:00,
2013-02-03 21:35:00,9.1,1.3,30.06,SW,229,0.0,0.0,70,0.00,,---,0.00,VWS V14.01,2013-02-04 03:35:00,
2013-02-03 21:40:00,9.0,1.2,30.06,SW,229,0.0,0.0,70,0.00,,---,0.00,VWS V14.01,2013-02-04 03:40:00,
2013-02-03 21:45:00,8.8,1.0,30.06,SW,229,0.0,0.0,70,0.00,,---,0.00,VWS V14.01,2013-02-04 03:45:00,
2013-02-03 21:50:00,8.7,0.9,30.07,SW,229,0.0,0.0,70,0.00,,---,0.00,VWS V14.01,2013-02-04 03:50:00,
2013-02-03 21:55:00,8.5,0.7,30.07,SW,229,0.0,0.0,70,0.00,,---,0.00,VWS V14.01,2013-02-04 03:55:00,
2013-02-03 22:00:00,8.3,0.9,30.07,SW,229,0.0,0.0,71,0.00,,---,0.00,VWS V14.01,2013-02-04 04:00:00,
2013-02-03 22:05:00,8.1,0.7,30.07,SW,229,0.0,0.0,71,0.00,,---,0.00,VWS V14.01,2013-02-04 04:05:00,
2013-02-03 22:10:00,8.0,0.6,30.07,SW,229,0.0,0.0,71,0.00,,---,0.00,VWS V14.01,2013-02-04 04:10:00,
2013-02-03 22:15:00,7.7,0.3,30.07,SW,229,0.0,0.0,71,0.00,,---,0.00,VWS V14.01,2013-02-04 04:15:00,
2013-02-03 22:20:00,7.5,0.1,30.06,SW,229,0.0,0.0,71,0.00,,---,0.00,VWS V14.01,2013-02-04 04:20:00,
2013-02-03 22:25:00,7.4,0.3,30.06,SW,229,0.0,0.0,72,0.00,,---,0.00,VWS V14.01,2013-02-04 04:25:00,
2013-02-03 22:30:00,7.3,0.2,30.06,SW,229,0.0,0.0,72,0.00,,---,0.00,VWS V14.01,2013-02-04 04:30:00,
2013-02-03 22:35:00,7.4,0.6,30.06,SW,229,0.0,0.0,73,0.00,,---,0.00,VWS V14.01,2013-02-04 04:35:00,
2013-02-03 22:40:00,7.5,1.0,30.07,SW,229,0.0,0.0,74,0.00,,---,0.00,VWS V14.01,2013-02-04 04:40:00,
2013-02-03 22:45:00,7.8,1.0,30.07,SW,229,0.0,0.0,73,0.00,,---,0.00,VWS V14.01,2013-02-04 04:45:00,
2013-02-03 22:50:00,8.1,1.2,30.07,SW,229,0.0,0.0,73,0.00,,---,0.00,VWS V14.01,2013-02-04 04:50:00,
2013-02-03 22:55:00,8.3,1.1,30.07,SW,229,0.0,0.0,72,0.00,,---,0.00,VWS V14.01,2013-02-04 04:55:00,
2013-02-03 23:00:00,8.0,-1.0,30.07,NNE,21,0.0,3.0,66,0.00,,---,0.00,VWS V14.01,2013-02-04 05:00:00,
2013-02-03 23:01:00,8.4,0.6,30.07,NNE,29,0.0,2.0,70,0.00,,---,0.00,VWS V14.01,2013-02-04 05:01:00,
2013-02-03 23:02:00,8.5,0.7,30.07,NNE,30,0.0,2.0,70,0.00,,---,0.00,VWS V14.01,2013-02-04 05:02:00,
2013-02-03 23:03:00,8.5,0.7,30.07,NNE,29,0.0,2.0,70,0.00,,---,0.00,VWS V14.01,2013-02-04 05:03:00,
2013-02-03 23:08:00,8.5,0.4,30.07,NNE,30,0.0,2.0,69,0.00,,---,0.00,VWS V14.01,2013-02-04 05:08:00,
2013-02-03 23:13:00,8.5,0.1,30.07,NNE,29,0.0,2.0,68,0.00,,---,0.00,VWS V14.01,2013-02-04 05:13:00,
2013-02-03 23:18:00,8.4,0.0,30.07,NNE,30,0.0,2.0,68,0.00,,---,0.00,VWS V14.01,2013-02-04 05:18:00,
2013-02-03 23:23:00,8.4,-0.3,30.07,NNE,29,0.0,2.0,67,0.00,,---,0.00,VWS V14.01,2013-02-04 05:23:00,
2013-02-03 23:28:00,8.3,-0.7,30.07,North,360,1.0,2.0,66,0.00,,---,0.00,VWS V14.01,2013-02-04 05:28:00,
2013-02-03 23:30:00,7.7,-1.6,30.08,NNE,24,0.0,4.0,65,0.00,,---,0.00,VWS V14.01,2013-02-04 05:30:00,
2013-02-03 23:33:00,8.3,-0.7,30.07,NNE,13,2.0,2.0,66,0.00,,---,0.00,VWS V14.01,2013-02-04 05:33:00,
2013-02-03 23:38:00,8.2,-0.8,30.07,NNE,19,0.0,3.0,66,0.00,,---,0.00,VWS V14.01,2013-02-04 05:38:00,
2013-02-03 23:43:00,8.2,-0.8,30.07,NNE,18,1.0,3.0,66,0.00,,---,0.00,VWS V14.01,2013-02-04 05:43:00,
2013-02-03 23:48:00,8.1,-0.9,30.07,NNE,19,0.0,3.0,66,0.00,,---,0.00,VWS V14.01,2013-02-04 05:48:00,
2013-02-03 23:53:00,8.1,-1.2,30.07,NNE,19,0.0,3.0,65,0.00,,---,0.00,VWS V14.01,2013-02-04 05:53:00,
2013-02-03 23:58:00,8.1,-0.9,30.07,NNE,18,0.0,3.0,66,0.00,,---,0.00,VWS V14.01,2013-02-04 05:58:00,